This is the latest recevied weather packets stored in our database for station/object EA1CUE-WX. If no packets are shown the sender has not sent any weather packets the latest 10 day(s).
| Time | Temp. | Humidity | Pressure | Rain* | Wind** | Luminosity | Snow |
|---|---|---|---|---|---|---|---|
| 1788090531 | 20.56° C | 43% | 1019.9 hPa | 0 mm | - | - | - |
| 1788090230 | 21.11° C | 42% | 1019.8 hPa | 0 mm | - | - | - |
| 1788089931 | 20.56° C | 41% | 1019.8 hPa | 0 mm | - | - | - |
| 1788089631 | 20.56° C | 38% | 1019.9 hPa | 0 mm | - | - | - |
| 1788089331 | 21.11° C | 38% | 1019.8 hPa | 0 mm | - | - | - |
| 1788089031 | 20.56° C | 37% | 1019.9 hPa | 0 mm | - | - | - |
| 1788088730 | 20.56° C | 26% | 1019.9 hPa | 0 mm | - | - | - |
| 1788088431 | 20.56° C | 36% | 1019.8 hPa | 0 mm | - | - | - |
| 1788088131 | 20.56° C | 42% | 1019.8 hPa | 0 mm | - | - | - |
| 1788087831 | 20.56° C | 40% | 1019.9 hPa | 0 mm | - | - | - |
| 1788087530 | 20° C | 41% | 1019.8 hPa | 0 mm | - | - | - |
| 1788087231 | 20° C | 39% | 1019.9 hPa | 0 mm | - | - | - |
| 1788086931 | 20° C | 39% | 1019.8 hPa | 0 mm | - | - | - |
| 1788086631 | 20.56° C | 36% | 1019.9 hPa | 0 mm | - | - | - |
| 1788086330 | 20.56° C | 33% | 1019.8 hPa | 0 mm | - | - | - |
| 1788086030 | 20° C | 29% | 1019.8 hPa | 0 mm | - | - | - |
| 1788085731 | 20° C | 28% | 1019.8 hPa | 0 mm | - | - | - |
| 1788085431 | 20° C | 37% | 1019.8 hPa | 0 mm | - | - | - |
| 1788085130 | 20° C | 32% | 1019.8 hPa | 0 mm | - | - | - |
| 1788084831 | 20° C | 32% | 1019.7 hPa | 0 mm | - | - | - |
| 1788084530 | 20° C | 24% | 1019.8 hPa | 0 mm | - | - | - |
| 1788084231 | 20° C | 22% | 1019.6 hPa | 0 mm | - | - | - |
| 1788083930 | 19.44° C | 20% | 1019.6 hPa | 0 mm | - | - | - |
| 1788083631 | 19.44° C | 22% | 1019.6 hPa | 0 mm | - | - | - |
| 1788083331 | 20° C | 12% | 1019.5 hPa | 0 mm | - | - | - |
* Rain latest hour (hover to see other rain measurements)
** Current wind speed in m/s (hover to see current wind gust speed)